| time (UTC) | temp F | wind direction | speed MPH | gust MPH | rain 1hr in | rain 24hr in | rain mn in | humidity % | barometer mb |
| 20260509170910 | 62 | 316 | 5.0 | 11.0 | 0.00 | 0.00 | 0.00 | 25 | 1017.9 |
| 20260509170032 | 61 | 289 | 4.0 | 14.0 | 0.00 | 0.00 | 0.00 | 26 | 1017.9 |
| 20260509165431 | 61 | 286 | 4.0 | 14.0 | 0.00 | 0.00 | 0.00 | 27 | 1017.9 |
| 20260509164511 | 60 | 274 | 5.0 | 18.0 | 0.00 | 0.00 | 0.00 | 25 | 1017.9 |
| 20260509163635 | 60 | 283 | 5.0 | 18.0 | 0.00 | 0.00 | 0.00 | 25 | 1017.9 |
| 20260509162710 | 60 | 251 | 5.0 | 17.0 | 0.00 | 0.00 | 0.00 | 26 | 1017.9 |
| 20260509161833 | 60 | 262 | 5.0 | 16.0 | 0.00 | 0.00 | 0.00 | 27 | 1017.9 |
| 20260509160910 | 59 | 267 | 5.0 | 13.0 | 0.00 | 0.00 | 0.00 | 25 | 1017.9 |
| 20260509160011 | 59 | 300 | 5.0 | 19.0 | 0.00 | 0.00 | 0.00 | 28 | 1017.9 |
| 20260509155411 | 58 | 283 | 5.0 | 19.0 | 0.00 | 0.00 | 0.00 | 28 | 1017.9 |
| 20260509154511 | 58 | 323 | 4.0 | 11.0 | 0.00 | 0.00 | 0.00 | 30 | 1017.9 |
| 20260509153610 | 57 | 25 | 5.0 | 18.0 | 0.00 | 0.00 | 0.00 | 31 | 1017.9 |
| 20260509152710 | 56 | 30 | 4.0 | 18.0 | 0.00 | 0.00 | 0.00 | 31 | 1017.9 |
| 20260509151810 | 54 | 146 | 2.0 | 6.0 | 0.00 | 0.00 | 0.00 | 34 | 1017.9 |
| 20260509150931 | 52 | 18 | 2.0 | 5.0 | 0.00 | 0.00 | 0.00 | 41 | 1017.9 |
| 20260509150028 | 50 | 99 | 2.0 | 6.0 | 0.00 | 0.00 | 0.00 | 44 | 1017.9 |
| 20260509145410 | 48 | 107 | 2.0 | 6.0 | 0.00 | 0.00 | 0.00 | 48 | 1017.9 |
| 20260509144510 | 46 | 45 | 2.0 | 9.0 | 0.00 | 0.00 | 0.00 | 52 | 1017.9 |
| 20260509143610 | 44 | 55 | 3.0 | 6.0 | 0.00 | 0.00 | 0.00 | 60 | 1017.9 |
| 20260509142711 | 41 | 93 | 3.0 | 8.0 | 0.00 | 0.00 | 0.00 | 74 | 1017.9 |
| 20260509141831 | 37 | 108 | 2.0 | 6.0 | 0.00 | 0.00 | 0.00 | 79 | 1017.9 |
| 20260509140931 | 36 | 113 | 1.0 | 2.0 | 0.00 | 0.00 | 0.00 | 82 | 1017.9 |
| 20260509140010 | 36 | 113 | 1.0 | 2.0 | 0.00 | 0.00 | 0.00 | 84 | 1017.9 |
| 20260509135410 | 35 | 124 | 2.0 | 4.0 | 0.00 | 0.00 | 0.00 | 85 | 1017.9 |
| 20260509134531 | 34 | 142 | 1.0 | 5.0 | 0.00 | 0.00 | 0.00 | 85 | 1017.9 |
| 20260509133610 | 34 | 182 | 0.0 | 3.0 | 0.00 | 0.00 | 0.00 | 86 | 1017.9 |
| 20260509132710 | 33 | 181 | 0.0 | 3.0 | 0.00 | 0.00 | 0.00 | 85 | 1017.4 |
| 20260509131810 | 33 | 0 | 0.0 | 0.0 | 0.00 | 0.00 | 0.00 | 85 | 1017.4 |
| 20260509130910 | 33 | 0 | 0.0 | 0.0 | 0.00 | 0.00 | 0.00 | 85 | 1017.4 |
| 20260509130010 | 33 | 0 | 0.0 | 0.0 | 0.00 | 0.00 | 0.00 | 85 | 1017.4 |
| 20260509125410 | 33 | 0 | 0.0 | 0.0 | 0.00 | 0.00 | 0.00 | 85 | 1017.4 |
| 20260509124510 | 33 | 0 | 0.0 | 0.0 | 0.00 | 0.00 | 0.00 | 84 | 1017.4 |
| 20260509123610 | 33 | 0 | 0.0 | 0.0 | 0.00 | 0.00 | 0.00 | 84 | 1017.4 |
| 20260509122710 | 34 | 0 | 0.0 | 0.0 | 0.00 | 0.00 | 0.00 | 84 | 1017.1 |
| 20260509121810 | 34 | 0 | 0.0 | 0.0 | 0.00 | 0.00 | 0.00 | 84 | 1017.1 |
| 20260509120909 | 34 | 0 | 0.0 | 0.0 | 0.00 | 0.00 | 0.00 | 84 | 1017.1 |
| 20260509120010 | 34 | 244 | 0.0 | 2.0 | 0.00 | 0.00 | 0.00 | 83 | 1017.1 |
| 20260509115410 | 34 | 244 | 0.0 | 1.0 | 0.00 | 0.00 | 0.00 | 83 | 1017.1 |
| 20260509114531 | 34 | 0 | 0.0 | 0.0 | 0.00 | 0.00 | 0.00 | 83 | 1017.1 |
| 20260509113609 | 34 | 0 | 0.0 | 0.0 | 0.00 | 0.00 | 0.00 | 82 | 1017.1 |
| 20260509112709 | 35 | 244 | 1.0 | 3.0 | 0.00 | 0.00 | 0.00 | 82 | 1016.8 |
| 20260509111809 | 35 | 0 | 0.0 | 0.0 | 0.00 | 0.00 | 0.00 | 81 | 1016.8 |
| 20260509110909 | 35 | 0 | 0.0 | 0.0 | 0.00 | 0.00 | 0.00 | 82 | 1016.8 |
| 20260509110010 | 35 | 0 | 0.0 | 0.0 | 0.00 | 0.00 | 0.00 | 81 | 1016.8 |
| 20260509105409 | 35 | 0 | 0.0 | 0.0 | 0.00 | 0.00 | 0.00 | 81 | 1016.8 |
| 20260509104509 | 36 | 0 | 0.0 | 0.0 | 0.00 | 0.00 | 0.00 | 81 | 1016.8 |
| 20260509103609 | 36 | 0 | 0.0 | 0.0 | 0.00 | 0.00 | 0.00 | 80 | 1016.8 |
| 20260509102730 | 36 | 0 | 0.0 | 0.0 | 0.00 | 0.00 | 0.00 | 79 | 1016.7 |
| 20260509101809 | 36 | 244 | 0.0 | 1.0 | 0.00 | 0.00 | 0.00 | 78 | 1016.7 |
| 20260509100909 | 37 | 244 | 0.0 | 2.0 | 0.00 | 0.00 | 0.00 | 78 | 1016.7 |
| 20260509100017 | 37 | 244 | 1.0 | 4.0 | 0.00 | 0.00 | 0.00 | 76 | 1016.7 |
| 20260509095409 | 37 | 244 | 0.0 | 3.0 | 0.00 | 0.00 | 0.00 | 77 | 1016.7 |
| 20260509094530 | 37 | 0 | 0.0 | 0.0 | 0.00 | 0.00 | 0.00 | 77 | 1016.5 |
| 20260509093609 | 38 | 244 | 0.0 | 3.0 | 0.00 | 0.00 | 0.00 | 77 | 1016.5 |
| 20260509092709 | 38 | 234 | 0.0 | 2.0 | 0.00 | 0.00 | 0.00 | 77 | 1016.5 |
| 20260509091809 | 38 | 0 | 0.0 | 0.0 | 0.00 | 0.00 | 0.00 | 77 | 1016.5 |
| 20260509090909 | 38 | 234 | 0.0 | 2.0 | 0.00 | 0.00 | 0.00 | 78 | 1016.5 |
| 20260509090010 | 38 | 234 | 0.0 | 2.0 | 0.00 | 0.00 | 0.00 | 78 | 1016.5 |
| 20260509085409 | 38 | 0 | 0.0 | 0.0 | 0.00 | 0.00 | 0.00 | 79 | 1016.5 |
| 20260509084509 | 38 | 234 | 0.0 | 2.0 | 0.00 | 0.00 | 0.00 | 78 | 1016.5 |
| 20260509083610 | 38 | 233 | 1.0 | 3.0 | 0.00 | 0.00 | 0.00 | 78 | 1016.5 |
| 20260509082730 | 38 | 0 | 0.0 | 0.0 | 0.00 | 0.00 | 0.00 | 80 | 1016.5 |
| 20260509081809 | 38 | 155 | 0.0 | 2.0 | 0.00 | 0.00 | 0.00 | 79 | 1016.5 |
| 20260509080909 | 38 | 155 | 0.0 | 2.0 | 0.00 | 0.00 | 0.00 | 80 | 1016.5 |
| 20260509080012 | 38 | 0 | 0.0 | 0.0 | 0.00 | 0.00 | 0.00 | 79 | 1016.5 |
| 20260509075410 | 38 | 0 | 0.0 | 0.0 | 0.00 | 0.00 | 0.00 | 78 | 1016.5 |
| 20260509074509 | 39 | 0 | 0.0 | 0.0 | 0.00 | 0.00 | 0.00 | 77 | 1017.1 |
| 20260509073609 | 39 | 155 | 1.0 | 2.0 | 0.00 | 0.00 | 0.00 | 78 | 1017.1 |
| 20260509072730 | 39 | 155 | 0.0 | 2.0 | 0.00 | 0.00 | 0.00 | 76 | 1017.1 |
| 20260509071810 | 39 | 121 | 1.0 | 3.0 | 0.00 | 0.00 | 0.00 | 77 | 1017.1 |
| 20260509070909 | 39 | 0 | 0.0 | 0.0 | 0.00 | 0.00 | 0.00 | 77 | 1017.1 |
| 20260509070014 | 40 | 0 | 0.0 | 0.0 | 0.00 | 0.00 | 0.00 | 77 | 1017.1 |
| 20260509065412 | 40 | 0 | 0.0 | 0.0 | 0.00 | 0.00 | 0.00 | 78 | 1017.1 |
| 20260509064508 | 40 | 0 | 0.0 | 0.0 | 0.00 | 0.00 | 0.00 | 79 | 1017.2 |
| 20260509063609 | 40 | 0 | 0.0 | 0.0 | 0.00 | 0.00 | 0.00 | 78 | 1017.2 |
| 20260509062709 | 40 | 0 | 0.0 | 0.0 | 0.00 | 0.00 | 0.00 | 78 | 1017.2 |
| 20260509061809 | 40 | 0 | 0.0 | 0.0 | 0.00 | 0.00 | 0.00 | 78 | 1017.2 |
| 20260509060909 | 41 | 0 | 0.0 | 0.0 | 0.00 | 0.00 | 0.00 | 78 | 1017.2 |
| 20260509060013 | 41 | 0 | 0.0 | 0.0 | 0.00 | 0.00 | 0.00 | 79 | 1017.2 |
| 20260509055408 | 41 | 0 | 0.0 | 0.0 | 0.00 | 0.00 | 0.00 | 79 | 1017.2 |
| 20260509054508 | 41 | 0 | 0.0 | 0.0 | 0.00 | 0.00 | 0.00 | 78 | 1018.0 |
| 20260509053608 | 41 | 99 | 0.0 | 3.0 | 0.00 | 0.00 | 0.00 | 78 | 1018.0 |
| 20260509052708 | 42 | 0 | 0.0 | 0.0 | 0.00 | 0.00 | 0.00 | 78 | 1018.0 |
| 20260509051808 | 42 | 0 | 0.0 | 0.0 | 0.00 | 0.00 | 0.00 | 78 | 1018.0 |
| 20260509050908 | 42 | 0 | 0.0 | 0.0 | 0.00 | 0.00 | 0.00 | 78 | 1018.0 |
| 20260509050009 | 43 | 0 | 0.0 | 0.0 | 0.00 | 0.00 | 0.00 | 78 | 1018.0 |
| 20260509045408 | 43 | 0 | 0.0 | 0.0 | 0.00 | 0.00 | 0.00 | 77 | 1018.0 |
| 20260509044508 | 43 | 0 | 0.0 | 0.0 | 0.00 | 0.00 | 0.00 | 77 | 1018.3 |
| 20260509043608 | 44 | 0 | 0.0 | 0.0 | 0.00 | 0.00 | 0.00 | 76 | 1018.3 |
| 20260509042729 | 44 | 0 | 0.0 | 0.0 | 0.00 | 0.00 | 0.00 | 77 | 1018.3 |
| 20260509041808 | 44 | 0 | 0.0 | 0.0 | 0.00 | 0.00 | 0.00 | 79 | 1018.3 |
| 20260509040908 | 44 | 0 | 0.0 | 0.0 | 0.00 | 0.00 | 0.00 | 79 | 1018.3 |
| 20260509040009 | 44 | 0 | 0.0 | 0.0 | 0.00 | 0.00 | 0.00 | 78 | 1018.3 |
| 20260509035408 | 45 | 0 | 0.0 | 0.0 | 0.00 | 0.00 | 0.00 | 79 | 1018.3 |
| 20260509034508 | 45 | 0 | 0.0 | 0.0 | 0.00 | 0.00 | 0.00 | 78 | 1018.0 |
| 20260509033629 | 45 | 0 | 0.0 | 0.0 | 0.00 | 0.00 | 0.00 | 77 | 1018.0 |
| 20260509032708 | 46 | 0 | 0.0 | 0.0 | 0.00 | 0.00 | 0.00 | 77 | 1018.0 |
| 20260509031808 | 46 | 0 | 0.0 | 0.0 | 0.00 | 0.00 | 0.00 | 77 | 1018.0 |
| 20260509030931 | 46 | 0 | 0.0 | 0.0 | 0.00 | 0.00 | 0.00 | 76 | 1018.0 |
| 20260509030008 | 46 | 0 | 0.0 | 0.0 | 0.00 | 0.00 | 0.00 | 76 | 1018.0 |
| 20260509025408 | 47 | 0 | 0.0 | 0.0 | 0.00 | 0.00 | 0.00 | 74 | 1018.0 |
| 20260509024529 | 47 | 0 | 0.0 | 0.0 | 0.00 | 0.00 | 0.00 | 73 | 1016.7 |
| 20260509023629 | 47 | 0 | 0.0 | 0.0 | 0.00 | 0.00 | 0.00 | 72 | 1016.7 |
| 20260509022729 | 48 | 0 | 0.0 | 0.0 | 0.00 | 0.00 | 0.00 | 71 | 1016.7 |
| 20260509021808 | 49 | 0 | 0.0 | 0.0 | 0.00 | 0.00 | 0.00 | 69 | 1016.7 |
| 20260509020908 | 50 | 0 | 0.0 | 0.0 | 0.00 | 0.00 | 0.00 | 68 | 1016.7 |
| 20260509020008 | 51 | 0 | 0.0 | 0.0 | 0.00 | 0.00 | 0.00 | 64 | 1016.7 |
| 20260509015408 | 51 | 98 | 0.0 | 2.0 | 0.00 | 0.00 | 0.00 | 65 | 1016.7 |
| 20260509014507 | 51 | 98 | 0.0 | 2.0 | 0.00 | 0.00 | 0.00 | 64 | 1016.7 |
| 20260509013608 | 52 | 0 | 0.0 | 0.0 | 0.00 | 0.00 | 0.00 | 63 | 1016.7 |
| 20260509012707 | 52 | 0 | 0.0 | 0.0 | 0.00 | 0.00 | 0.00 | 61 | 1016.7 |
| 20260509011808 | 53 | 98 | 1.0 | 6.0 | 0.00 | 0.00 | 0.00 | 61 | 1016.7 |
| 20260509010928 | 52 | 0 | 0.0 | 0.0 | 0.00 | 0.00 | 0.00 | 66 | 1016.7 |
| 20260509010008 | 53 | 97 | 0.0 | 2.0 | 0.00 | 0.00 | 0.00 | 63 | 1016.7 |
| 20260509005407 | 53 | 98 | 0.0 | 2.0 | 0.00 | 0.00 | 0.00 | 60 | 1016.7 |
| 20260509004508 | 54 | 97 | 1.0 | 3.0 | 0.00 | 0.00 | 0.00 | 58 | 1016.4 |
| 20260509003608 | 53 | 99 | 1.0 | 5.0 | 0.00 | 0.00 | 0.00 | 60 | 1016.4 |
| 20260509002728 | 53 | 102 | 0.0 | 3.0 | 0.00 | 0.00 | 0.00 | 60 | 1016.4 |
| 20260509001828 | 53 | 102 | 0.0 | 2.0 | 0.00 | 0.00 | 0.00 | 59 | 1016.4 |
| 20260509000908 | 53 | 0 | 0.0 | 0.0 | 0.00 | 0.00 | 0.00 | 61 | 1016.4 |
| 20260509000007 | 54 | 103 | 0.0 | 2.0 | 0.00 | 0.00 | 0.00 | 59 | 1016.4 |
| 20260508235407 | 54 | 103 | 1.0 | 2.0 | 0.00 | 0.00 | 0.00 | 56 | 1016.4 |
| 20260508234507 | 54 | 103 | 0.0 | 3.0 | 0.00 | 0.00 | 0.00 | 57 | 1016.1 |
| 20260508233607 | 55 | 104 | 1.0 | 3.0 | 0.00 | 0.00 | 0.00 | 56 | 1016.1 |
| 20260508232712 | 55 | 107 | 2.0 | 5.0 | 0.00 | 0.00 | 0.00 | 55 | 1016.1 |
| 20260508231812 | 56 | 109 | 2.0 | 6.0 | 0.00 | 0.00 | 0.00 | 55 | 1016.1 |
| 20260508230912 | 57 | 99 | 1.0 | 4.0 | 0.00 | 0.00 | 0.00 | 53 | 1016.1 |
| 20260508230012 | 58 | 108 | 3.0 | 6.0 | 0.00 | 0.00 | 0.00 | 49 | 1016.1 |
| 20260508225412 | 59 | 111 | 3.0 | 6.0 | 0.00 | 0.00 | 0.00 | 48 | 1016.1 |
| 20260508224512 | 58 | 103 | 2.0 | 7.0 | 0.00 | 0.00 | 0.00 | 50 | 1016.0 |
| 20260508223612 | 58 | 282 | 1.0 | 6.0 | 0.00 | 0.00 | 0.00 | 51 | 1016.4 |
| 20260508222712 | 59 | 85 | 2.0 | 8.0 | 0.00 | 0.00 | 0.00 | 46 | 1016.4 |
| 20260508221812 | 59 | 99 | 1.0 | 6.0 | 0.00 | 0.00 | 0.00 | 45 | 1016.4 |
| 20260508220912 | 60 | 112 | 2.0 | 7.0 | 0.00 | 0.00 | 0.00 | 41 | 1016.4 |
| 20260508220012 | 59 | 108 | 3.0 | 9.0 | 0.00 | 0.00 | 0.00 | 47 | 1016.4 |
| 20260508215412 | 59 | 101 | 3.0 | 9.0 | 0.00 | 0.00 | 0.00 | 46 | 1016.4 |
| 20260508214512 | 60 | 309 | 2.0 | 4.0 | 0.00 | 0.00 | 0.00 | 40 | 1016.4 |
| 20260508213611 | 60 | 246 | 1.0 | 4.0 | 0.00 | 0.00 | 0.00 | 33 | 1016.4 |
| 20260508212732 | 61 | 161 | 1.0 | 6.0 | 0.00 | 0.00 | 0.00 | 33 | 1016.4 |
| 20260508211811 | 60 | 7 | 2.0 | 5.0 | 0.00 | 0.00 | 0.00 | 33 | 1016.4 |
| 20260508210911 | 60 | 19 | 2.0 | 9.0 | 0.00 | 0.00 | 0.00 | 35 | 1016.4 |
| 20260508210012 | 61 | 298 | 2.0 | 9.0 | 0.00 | 0.00 | 0.00 | 31 | 1016.4 |
| 20260508205432 | 60 | 275 | 2.0 | 9.0 | 0.00 | 0.00 | 0.00 | 30 | 1016.4 |
| 20260508204511 | 61 | 190 | 2.0 | 5.0 | 0.00 | 0.00 | 0.00 | 33 | 1016.4 |
| 20260508203611 | 63 | 260 | 2.0 | 8.0 | 0.00 | 0.00 | 0.00 | 27 | 1016.4 |
| 20260508202712 | 62 | 271 | 2.0 | 9.0 | 0.00 | 0.00 | 0.00 | 31 | 1016.9 |
| 20260508201811 | 60 | 273 | 2.0 | 9.0 | 0.00 | 0.00 | 0.00 | 32 | 1016.9 |
| 20260508200911 | 60 | 322 | 2.0 | 7.0 | 0.00 | 0.00 | 0.00 | 30 | 1016.9 |
| 20260508200011 | 60 | 296 | 2.0 | 8.0 | 0.00 | 0.00 | 0.00 | 34 | 1016.9 |
| 20260508195411 | 60 | 264 | 3.0 | 7.0 | 0.00 | 0.00 | 0.00 | 32 | 1016.9 |
| 20260508194511 | 62 | 338 | 3.0 | 11.0 | 0.00 | 0.00 | 0.00 | 30 | 1016.9 |
| 20260508193611 | 61 | 271 | 4.0 | 13.0 | 0.00 | 0.00 | 0.00 | 27 | 1016.9 |
| 20260508192711 | 63 | 111 | 3.0 | 10.0 | 0.00 | 0.00 | 0.00 | 32 | 1018.3 |
| 20260508191811 | 62 | 318 | 3.0 | 10.0 | 0.00 | 0.00 | 0.00 | 29 | 1018.3 |
| 20260508190911 | 63 | 291 | 4.0 | 10.0 | 0.00 | 0.00 | 0.00 | 29 | 1018.3 |
| 20260508190011 | 63 | 299 | 3.0 | 10.0 | 0.00 | 0.00 | 0.00 | 29 | 1018.3 |
| 20260508185411 | 62 | 283 | 3.0 | 10.0 | 0.00 | 0.00 | 0.00 | 31 | 1018.3 |
| 20260508184532 | 62 | 262 | 4.0 | 12.0 | 0.00 | 0.00 | 0.00 | 30 | 1018.3 |
| 20260508183632 | 62 | 326 | 3.0 | 12.0 | 0.00 | 0.00 | 0.00 | 35 | 1018.3 |
| 20260508182711 | 62 | 312 | 4.0 | 13.0 | 0.00 | 0.00 | 0.00 | 34 | 1018.3 |
| 20260508181811 | 62 | 331 | 3.0 | 10.0 | 0.00 | 0.00 | 0.00 | 31 | 1018.3 |
| 20260508180911 | 60 | 274 | 3.0 | 8.0 | 0.00 | 0.00 | 0.00 | 31 | 1018.3 |
| 20260508180011 | 61 | 274 | 3.0 | 9.0 | 0.00 | 0.00 | 0.00 | 33 | 1018.3 |
| 20260508175432 | 60 | 273 | 3.0 | 8.0 | 0.00 | 0.00 | 0.00 | 31 | 1018.3 |
| 20260508174511 | 60 | 63 | 4.0 | 13.0 | 0.00 | 0.00 | 0.00 | 32 | 1018.3 |
| 20260508173611 | 59 | 314 | 3.0 | 9.0 | 0.00 | 0.00 | 0.00 | 34 | 1018.3 |
| 20260508172711 | 59 | 285 | 2.0 | 7.0 | 0.00 | 0.00 | 0.00 | 39 | 1018.3 |
| 20260508171811 | 58 | 327 | 3.0 | 9.0 | 0.00 | 0.00 | 0.00 | 32 | 1018.3 |